Time,TemperatureF,DewpointF,PressureIn,WindDirection,WindDirectionDegrees,WindSpeedMPH,WindSpeedGustMPH,Humidity,HourlyPrecipIn,Conditions,Clouds,dailyrainin,SoftwareType,DateUTC
2013-01-15 00:04:00,38.0,-99.9,30.27,NNE,25,6.0,10.0,-999,-99.99,,,-99.99,,2013-01-15 05:04:00,
2013-01-15 00:12:00,38.0,-99.9,-100.00,NNE,23,9.0,15.0,-999,-99.99,,,-99.99,,2013-01-15 05:12:00,
2013-01-15 00:23:00,38.0,-99.9,-100.00,NNE,24,8.0,11.0,-999,-99.99,,,-99.99,,2013-01-15 05:23:00,
2013-01-15 00:33:00,38.0,-99.9,30.27,NNE,23,8.0,11.0,-999,-99.99,,,-99.99,,2013-01-15 05:33:00,
2013-01-15 00:43:00,38.0,-99.9,-100.00,NNE,32,5.0,10.0,-999,-99.99,,,-99.99,,2013-01-15 05:43:00,
2013-01-15 00:53:00,38.0,-99.9,-100.00,NNE,29,5.0,8.0,-999,-99.99,,,-99.99,,2013-01-15 05:53:00,
2013-01-15 01:03:00,38.0,-99.9,30.26,NE,35,5.0,9.0,-999,-99.99,,,-99.99,,2013-01-15 06:03:00,
2013-01-15 01:12:00,38.0,-99.9,-100.00,NE,34,5.0,7.0,-999,-99.99,,,-99.99,,2013-01-15 06:12:00,
2013-01-15 01:22:00,38.0,-99.9,-100.00,NNE,33,5.0,9.0,-999,-99.99,,,-99.99,,2013-01-15 06:22:00,
2013-01-15 01:33:00,38.0,-99.9,30.25,NE,36,5.0,10.0,-999,-99.99,,,-99.99,,2013-01-15 06:33:00,
2013-01-15 01:43:00,38.0,-99.9,-100.00,NNE,33,5.0,11.0,-999,-99.99,,,-99.99,,2013-01-15 06:43:00,
2013-01-15 01:53:00,38.0,-99.9,-100.00,NE,52,3.0,7.0,-999,-99.99,,,-99.99,,2013-01-15 06:53:00,
2013-01-15 02:02:00,37.0,-99.9,30.24,NE,35,5.0,8.0,-999,-99.99,,,-99.99,,2013-01-15 07:02:00,
2013-01-15 02:12:00,37.0,-99.9,-100.00,NNE,23,5.0,7.0,-999,-99.99,,,-99.99,,2013-01-15 07:12:00,
2013-01-15 02:22:00,37.0,-99.9,-100.00,NNE,33,6.0,9.0,-999,-99.99,,,-99.99,,2013-01-15 07:22:00,
2013-01-15 02:33:00,37.0,-99.9,-100.00,NNE,26,7.0,11.0,-999,-99.99,,,-99.99,,2013-01-15 07:33:00,
2013-01-15 02:43:00,37.0,-99.9,-100.00,NE,45,6.0,11.0,-999,-99.99,,,-99.99,,2013-01-15 07:43:00,
2013-01-15 02:53:00,37.0,-99.9,-100.00,NNE,26,7.0,10.0,-999,-99.99,,,-99.99,,2013-01-15 07:53:00,
2013-01-15 03:02:00,37.0,-99.9,30.27,NNE,28,6.0,9.0,-999,-99.99,,,-99.99,,2013-01-15 08:02:00,
2013-01-15 03:12:00,36.0,-99.9,-100.00,NNE,32,10.0,14.0,-999,-99.99,,,-99.99,,2013-01-15 08:12:00,
2013-01-15 03:22:00,36.0,-99.9,-100.00,NE,56,7.0,11.0,-999,-99.99,,,-99.99,,2013-01-15 08:22:00,
2013-01-15 03:33:00,35.0,-99.9,30.24,ENE,59,6.0,10.0,-999,-99.99,,,-99.99,,2013-01-15 08:33:00,
2013-01-15 03:43:00,35.0,-99.9,-100.00,NE,38,5.0,11.0,-999,-99.99,,,-99.99,,2013-01-15 08:43:00,
2013-01-15 03:53:00,35.0,-99.9,-100.00,NE,44,3.0,7.0,-999,-99.99,,,-99.99,,2013-01-15 08:53:00,
2013-01-15 04:02:00,35.0,-99.9,-100.00,ENE,57,5.0,8.0,-999,-99.99,,,-99.99,,2013-01-15 09:02:00,
2013-01-15 04:12:00,35.0,-99.9,-100.00,SSW,209,1.0,6.0,-999,-99.99,,,-99.99,,2013-01-15 09:12:00,
2013-01-15 04:22:00,36.0,-99.9,-100.00,NNE,23,6.0,9.0,-999,-99.99,,,-99.99,,2013-01-15 09:22:00,
2013-01-15 04:33:00,36.0,-99.9,30.24,NNE,22,7.0,12.0,-999,-99.99,,,-99.99,,2013-01-15 09:33:00,
2013-01-15 04:43:00,36.0,-99.9,-100.00,NE,41,6.0,13.0,-999,-99.99,,,-99.99,,2013-01-15 09:43:00,
2013-01-15 04:53:00,36.0,-99.9,-100.00,SSE,149,2.0,6.0,-999,-99.99,,,-99.99,,2013-01-15 09:53:00,
2013-01-15 05:02:00,36.0,-99.9,30.23,SSE,160,2.0,5.0,-999,-99.99,,,-99.99,,2013-01-15 10:02:00,
2013-01-15 05:12:00,36.0,-99.9,-100.00,NE,45,4.0,6.0,-999,-99.99,,,-99.99,,2013-01-15 10:12:00,
2013-01-15 05:22:00,36.0,-99.9,-100.00,NNE,31,5.0,6.0,-999,-99.99,,,-99.99,,2013-01-15 10:22:00,
2013-01-15 05:33:00,36.0,-99.9,-100.00,NNE,24,5.0,8.0,-999,-99.99,,,-99.99,,2013-01-15 10:33:00,
2013-01-15 05:42:00,36.0,-99.9,-100.00,NE,36,5.0,8.0,-999,-99.99,,,-99.99,,2013-01-15 10:42:00,
2013-01-15 05:52:00,36.0,-99.9,-100.00,NNE,29,4.0,8.0,-999,-99.99,,,-99.99,,2013-01-15 10:52:00,
2013-01-15 06:03:00,36.0,-99.9,30.24,NNE,21,2.0,5.0,-999,-99.99,,,-99.99,,2013-01-15 11:03:00,
2013-01-15 06:12:00,36.0,-99.9,-100.00,NNE,24,7.0,9.0,-999,-99.99,,,-99.99,,2013-01-15 11:12:00,
2013-01-15 06:23:00,36.0,-99.9,-100.00,NNE,16,7.0,11.0,-999,-99.99,,,-99.99,,2013-01-15 11:23:00,
2013-01-15 06:33:00,36.0,-99.9,30.25,NNE,14,6.0,10.0,-999,-99.99,,,-99.99,,2013-01-15 11:33:00,
2013-01-15 06:43:00,36.0,-99.9,-100.00,NNE,26,6.0,9.0,-999,-99.99,,,-99.99,,2013-01-15 11:43:00,
2013-01-15 06:53:00,36.0,-99.9,-100.00,NNE,18,7.0,11.0,-999,-99.99,,,-99.99,,2013-01-15 11:53:00,
2013-01-15 07:03:00,36.0,-99.9,30.27,NNE,14,6.0,11.0,-999,-99.99,,,-99.99,,2013-01-15 12:03:00,
2013-01-15 07:12:00,36.0,-99.9,-100.00,NNE,21,9.0,14.0,-999,-99.99,,,-99.99,,2013-01-15 12:12:00,
2013-01-15 07:23:00,36.0,-99.9,-100.00,North,9,7.0,11.0,-999,-99.99,,,-99.99,,2013-01-15 12:23:00,
2013-01-15 07:33:00,37.0,-99.9,30.28,NNE,22,8.0,12.0,-999,-99.99,,,-99.99,,2013-01-15 12:33:00,
2013-01-15 07:43:00,37.0,-99.9,-100.00,NNE,12,7.0,13.0,-999,-99.99,,,-99.99,,2013-01-15 12:43:00,
2013-01-15 07:53:00,37.0,-99.9,-100.00,NNE,17,8.0,13.0,-999,-99.99,,,-99.99,,2013-01-15 12:53:00,
2013-01-15 08:03:00,37.0,-99.9,30.28,NNE,19,8.0,12.0,-999,-99.99,,,-99.99,,2013-01-15 13:03:00,
2013-01-15 08:13:00,37.0,-99.9,-100.00,NNE,21,8.0,14.0,-999,-99.99,,,-99.99,,2013-01-15 13:13:00,
2013-01-15 08:23:00,37.0,-99.9,-100.00,NNE,15,8.0,13.0,-999,-99.99,,,-99.99,,2013-01-15 13:23:00,
2013-01-15 08:33:00,37.0,-99.9,30.29,NNE,18,9.0,13.0,-999,-99.99,,,-99.99,,2013-01-15 13:33:00,
2013-01-15 08:43:00,37.0,-99.9,-100.00,NNE,25,6.0,12.0,-999,-99.99,,,-99.99,,2013-01-15 13:43:00,
2013-01-15 08:53:00,37.0,-99.9,-100.00,NNE,25,7.0,14.0,-999,-99.99,,,-99.99,,2013-01-15 13:53:00,
2013-01-15 09:03:00,37.0,-99.9,-100.00,NNE,14,8.0,13.0,-999,-99.99,,,-99.99,,2013-01-15 14:03:00,
2013-01-15 09:13:00,37.0,-99.9,-100.00,NNE,18,9.0,14.0,-999,-99.99,,,-99.99,,2013-01-15 14:13:00,
2013-01-15 09:23:00,37.0,-99.9,-100.00,NNE,25,9.0,16.0,-999,-99.99,,,-99.99,,2013-01-15 14:23:00,
2013-01-15 09:33:00,37.0,-99.9,30.32,NNE,28,8.0,15.0,-999,-99.99,,,-99.99,,2013-01-15 14:33:00,
2013-01-15 09:43:00,37.0,-99.9,-100.00,NNE,27,10.0,14.0,-999,-99.99,,,-99.99,,2013-01-15 14:43:00,
2013-01-15 09:54:00,37.0,-99.9,-100.00,NNE,21,11.0,15.0,-999,-99.99,,,-99.99,,2013-01-15 14:54:00,
2013-01-15 10:03:00,37.0,-99.9,30.32,NNE,26,10.0,17.0,-999,-99.99,,,-99.99,,2013-01-15 15:03:00,
2013-01-15 10:13:00,36.0,-99.9,-100.00,NNE,24,9.0,13.0,-999,-99.99,,,-99.99,,2013-01-15 15:13:00,
2013-01-15 10:23:00,36.0,-99.9,-100.00,NNE,25,6.0,12.0,-999,-99.99,,,-99.99,,2013-01-15 15:23:00,
2013-01-15 10:33:00,37.0,-99.9,30.31,NE,34,9.0,16.0,-999,-99.99,,,-99.99,,2013-01-15 15:33:00,
2013-01-15 10:44:00,37.0,-99.9,-100.00,NNE,23,8.0,15.0,-999,-99.99,,,-99.99,,2013-01-15 15:44:00,
2013-01-15 10:53:00,37.0,-99.9,-100.00,NNE,21,10.0,13.0,-999,-99.99,,,-99.99,,2013-01-15 15:53:00,
2013-01-15 11:03:00,37.0,-99.9,-100.00,NNE,31,7.0,12.0,-999,-99.99,,,-99.99,,2013-01-15 16:03:00,
2013-01-15 11:12:00,37.0,-99.9,-100.00,NNE,21,7.0,11.0,-999,-99.99,,,-99.99,,2013-01-15 16:12:00,
2013-01-15 11:23:00,37.0,-99.9,-100.00,NNE,21,6.0,11.0,-999,-99.99,,,-99.99,,2013-01-15 16:23:00,
2013-01-15 11:33:00,37.0,-99.9,30.32,NNE,30,6.0,10.0,-999,-99.99,,,-99.99,,2013-01-15 16:33:00,
2013-01-15 11:43:00,37.0,-99.9,-100.00,NNE,14,6.0,10.0,-999,-99.99,,,-99.99,,2013-01-15 16:43:00,
2013-01-15 11:54:00,37.0,-99.9,-100.00,NNE,22,6.0,11.0,-999,-99.99,,,-99.99,,2013-01-15 16:54:00,
2013-01-15 12:04:00,37.0,-99.9,30.31,NNE,17,6.0,11.0,-999,-99.99,,,-99.99,,2013-01-15 17:04:00,
2013-01-15 12:13:00,37.0,-99.9,-100.00,NNE,21,6.0,11.0,-999,-99.99,,,-99.99,,2013-01-15 17:13:00,
2013-01-15 12:23:00,37.0,-99.9,-100.00,NNE,26,7.0,11.0,-999,-99.99,,,-99.99,,2013-01-15 17:23:00,
2013-01-15 12:33:00,37.0,-99.9,30.30,NNE,29,5.0,10.0,-999,-99.99,,,-99.99,,2013-01-15 17:33:00,
2013-01-15 12:43:00,37.0,-99.9,-100.00,NNE,29,6.0,10.0,-999,-99.99,,,-99.99,,2013-01-15 17:43:00,
2013-01-15 12:53:00,38.0,-99.9,-100.00,NNE,29,5.0,9.0,-999,-99.99,,,-99.99,,2013-01-15 17:53:00,
2013-01-15 13:03:00,38.0,-99.9,30.27,NNE,28,4.0,7.0,-999,-99.99,,,-99.99,,2013-01-15 18:03:00,
2013-01-15 13:13:00,38.0,-99.9,-100.00,NNE,27,5.0,8.0,-999,-99.99,,,-99.99,,2013-01-15 18:13:00,
2013-01-15 13:24:00,38.0,-99.9,-100.00,NNE,25,6.0,10.0,-999,-99.99,,,-99.99,,2013-01-15 18:24:00,
2013-01-15 13:34:00,38.0,-99.9,30.25,NNE,15,3.0,6.0,-999,-99.99,,,-99.99,,2013-01-15 18:34:00,
2013-01-15 13:43:00,38.0,-99.9,-100.00,NNE,27,3.0,7.0,-999,-99.99,,,-99.99,,2013-01-15 18:43:00,
2013-01-15 13:54:00,38.0,-99.9,-100.00,NNE,29,3.0,8.0,-999,-99.99,,,-99.99,,2013-01-15 18:54:00,
2013-01-15 14:04:00,38.0,-99.9,-100.00,NNE,21,5.0,7.0,-999,-99.99,,,-99.99,,2013-01-15 19:04:00,
2013-01-15 14:13:00,38.0,-99.9,-100.00,NNE,33,3.0,6.0,-999,-99.99,,,-99.99,,2013-01-15 19:13:00,
2013-01-15 14:23:00,38.0,-99.9,-100.00,NNE,29,4.0,6.0,-999,-99.99,,,-99.99,,2013-01-15 19:23:00,
2013-01-15 14:33:00,38.0,-99.9,30.26,NNE,22,4.0,8.0,-999,-99.99,,,-99.99,,2013-01-15 19:33:00,
2013-01-15 14:43:00,38.0,-99.9,-100.00,NNE,25,5.0,8.0,-999,-99.99,,,-99.99,,2013-01-15 19:43:00,
2013-01-15 14:53:00,38.0,-99.9,-100.00,NNE,32,4.0,7.0,-999,-99.99,,,-99.99,,2013-01-15 19:53:00,
2013-01-15 15:04:00,38.0,-99.9,30.25,NNE,29,5.0,8.0,-999,-99.99,,,-99.99,,2013-01-15 20:04:00,
2013-01-15 15:13:00,39.0,-99.9,-100.00,NNE,17,5.0,8.0,-999,-99.99,,,-99.99,,2013-01-15 20:13:00,
2013-01-15 15:23:00,39.0,-99.9,-100.00,NNE,21,5.0,9.0,-999,-99.99,,,-99.99,,2013-01-15 20:23:00,
2013-01-15 15:34:00,38.0,-99.9,-100.00,NNE,15,6.0,9.0,-999,-99.99,,,-99.99,,2013-01-15 20:34:00,
2013-01-15 15:44:00,38.0,-99.9,-100.00,NNE,19,5.0,7.0,-999,-99.99,,,-99.99,,2013-01-15 20:44:00,
2013-01-15 15:53:00,39.0,-99.9,-100.00,NNE,21,4.0,7.0,-999,-99.99,,,-99.99,,2013-01-15 20:53:00,
2013-01-15 16:03:00,38.0,-99.9,30.25,NNE,29,4.0,9.0,-999,-99.99,,,-99.99,,2013-01-15 21:03:00,
2013-01-15 16:13:00,38.0,-99.9,-100.00,NNE,23,5.0,6.0,-999,-99.99,,,-99.99,,2013-01-15 21:13:00,
2013-01-15 16:23:00,38.0,-99.9,-100.00,NNE,23,6.0,9.0,-999,-99.99,,,-99.99,,2013-01-15 21:23:00,
2013-01-15 16:34:00,38.0,-99.9,30.27,NNE,28,6.0,9.0,-999,-99.99,,,-99.99,,2013-01-15 21:34:00,
2013-01-15 16:43:00,38.0,-99.9,-100.00,NNE,27,6.0,11.0,-999,-99.99,,,-99.99,,2013-01-15 21:43:00,
2013-01-15 16:53:00,38.0,-99.9,-100.00,NNE,31,6.0,8.0,-999,-99.99,,,-99.99,,2013-01-15 21:53:00,
2013-01-15 17:03:00,38.0,-99.9,-100.00,NE,38,6.0,10.0,-999,-99.99,,,-99.99,,2013-01-15 22:03:00,
2013-01-15 17:13:00,38.0,-99.9,-100.00,NE,34,6.0,9.0,-999,-99.99,,,-99.99,,2013-01-15 22:13:00,
2013-01-15 17:23:00,38.0,-99.9,-100.00,NNE,22,6.0,9.0,-999,-99.99,,,-99.99,,2013-01-15 22:23:00,
2013-01-15 17:33:00,38.0,-99.9,30.27,NNE,31,5.0,9.0,-999,-99.99,,,-99.99,,2013-01-15 22:33:00,
2013-01-15 17:43:00,38.0,-99.9,-100.00,NNE,28,4.0,7.0,-999,-99.99,,,-99.99,,2013-01-15 22:43:00,
2013-01-15 17:53:00,38.0,-99.9,-100.00,NNE,32,6.0,8.0,-999,-99.99,,,-99.99,,2013-01-15 22:53:00,
2013-01-15 18:03:00,38.0,-99.9,30.26,NNE,26,6.0,8.0,-999,-99.99,,,-99.99,,2013-01-15 23:03:00,
2013-01-15 18:13:00,38.0,-99.9,-100.00,NNE,27,7.0,12.0,-999,-99.99,,,-99.99,,2013-01-15 23:13:00,
2013-01-15 18:23:00,38.0,-99.9,-100.00,NE,36,7.0,11.0,-999,-99.99,,,-99.99,,2013-01-15 23:23:00,
2013-01-15 18:33:00,38.0,-99.9,-100.00,NNE,30,5.0,11.0,-999,-99.99,,,-99.99,,2013-01-15 23:33:00,
2013-01-15 18:43:00,38.0,-99.9,-100.00,NNE,30,7.0,10.0,-999,-99.99,,,-99.99,,2013-01-15 23:43:00,
2013-01-15 18:53:00,38.0,-99.9,-100.00,NNE,28,6.0,10.0,-999,-99.99,,,-99.99,,2013-01-15 23:53:00,
2013-01-15 19:03:00,38.0,-99.9,30.24,NNE,29,7.0,10.0,-999,-99.99,,,-99.99,,2013-01-16 00:03:00,
2013-01-15 19:13:00,38.0,-99.9,-100.00,NNE,20,6.0,11.0,-999,-99.99,,,-99.99,,2013-01-16 00:13:00,
2013-01-15 19:23:00,38.0,-99.9,-100.00,NNE,21,7.0,12.0,-999,-99.99,,,-99.99,,2013-01-16 00:23:00,
2013-01-15 19:33:00,38.0,-99.9,30.27,NNE,25,8.0,12.0,-999,-99.99,,,-99.99,,2013-01-16 00:33:00,
2013-01-15 19:43:00,38.0,-99.9,-100.00,NNE,22,6.0,12.0,-999,-99.99,,,-99.99,,2013-01-16 00:43:00,
2013-01-15 19:53:00,38.0,-99.9,-100.00,NNE,26,7.0,13.0,-999,-99.99,,,-99.99,,2013-01-16 00:53:00,
2013-01-15 20:03:00,38.0,-99.9,30.27,NNE,28,7.0,10.0,-999,-99.99,,,-99.99,,2013-01-16 01:03:00,
2013-01-15 20:12:00,38.0,-99.9,-100.00,NNE,19,7.0,13.0,-999,-99.99,,,-99.99,,2013-01-16 01:12:00,
2013-01-15 20:23:00,38.0,-99.9,-100.00,NNE,23,7.0,12.0,-999,-99.99,,,-99.99,,2013-01-16 01:23:00,
2013-01-15 20:33:00,38.0,-99.9,30.25,NNE,28,5.0,8.0,-999,-99.99,,,-99.99,,2013-01-16 01:33:00,
2013-01-15 20:43:00,38.0,-99.9,-100.00,NNE,26,7.0,11.0,-999,-99.99,,,-99.99,,2013-01-16 01:43:00,
2013-01-15 20:53:00,38.0,-99.9,-100.00,NE,34,5.0,11.0,-999,-99.99,,,-99.99,,2013-01-16 01:53:00,
2013-01-15 21:03:00,38.0,-99.9,30.24,NNE,24,5.0,9.0,-999,-99.99,,,-99.99,,2013-01-16 02:03:00,
2013-01-15 21:12:00,38.0,-99.9,-100.00,NE,39,2.0,5.0,-999,-99.99,,,-99.99,,2013-01-16 02:12:00,
2013-01-15 21:23:00,38.0,-99.9,-100.00,NNE,25,5.0,7.0,-999,-99.99,,,-99.99,,2013-01-16 02:23:00,
2013-01-15 21:33:00,38.0,-99.9,30.25,NE,40,4.0,9.0,-999,-99.99,,,-99.99,,2013-01-16 02:33:00,
2013-01-15 21:43:00,38.0,-99.9,-100.00,NE,36,3.0,5.0,-999,-99.99,,,-99.99,,2013-01-16 02:43:00,
2013-01-15 21:53:00,38.0,-99.9,-100.00,NE,44,4.0,7.0,-999,-99.99,,,-99.99,,2013-01-16 02:53:00,
2013-01-15 22:03:00,38.0,-99.9,30.24,NNE,32,3.0,8.0,-999,-99.99,,,-99.99,,2013-01-16 03:03:00,
2013-01-15 22:12:00,38.0,-99.9,-100.00,NE,50,2.0,6.0,-999,-99.99,,,-99.99,,2013-01-16 03:12:00,
2013-01-15 22:23:00,38.0,-99.9,-100.00,ENE,58,4.0,7.0,-999,-99.99,,,-99.99,,2013-01-16 03:23:00,
2013-01-15 22:33:00,38.0,-99.9,30.22,ENE,73,3.0,6.0,-999,-99.99,,,-99.99,,2013-01-16 03:33:00,
2013-01-15 22:43:00,37.0,-99.9,-100.00,ENE,75,4.0,6.0,-999,-99.99,,,-99.99,,2013-01-16 03:43:00,
2013-01-15 22:53:00,37.0,-99.9,-100.00,NNE,24,3.0,4.0,-999,-99.99,,,-99.99,,2013-01-16 03:53:00,
2013-01-15 23:02:00,37.0,-99.9,30.21,NNE,33,3.0,5.0,-999,-99.99,,,-99.99,,2013-01-16 04:02:00,
2013-01-15 23:12:00,37.0,-99.9,-100.00,NE,36,5.0,8.0,-999,-99.99,,,-99.99,,2013-01-16 04:12:00,
2013-01-15 23:22:00,37.0,-99.9,-100.00,NNE,33,5.0,7.0,-999,-99.99,,,-99.99,,2013-01-16 04:22:00,
2013-01-15 23:33:00,37.0,-99.9,30.22,NE,38,4.0,7.0,-999,-99.99,,,-99.99,,2013-01-16 04:33:00,
2013-01-15 23:42:00,37.0,-99.9,-100.00,NE,40,3.0,6.0,-999,-99.99,,,-99.99,,2013-01-16 04:42:00,
2013-01-15 23:53:00,37.0,-99.9,-100.00,NE,37,4.0,5.0,-999,-99.99,,,-99.99,,2013-01-16 04:53:00,